Weather History for Gillette, WY

Change the Weather History Date:

Wednesday, February 27, 2013

  Actual Average Record
Temperature  
Mean Temperature 25 °F 30 °F  
Max Temperature 36 °F 41 °F 44 °F (2014)
Min Temperature 14 °F 19 °F 2 °F (2014)
Degree Days  
Heating Degree Days 40 35  
Month to date heating degree days 1001 1019  
Since 1 July heating degree days 5087 5374  
Cooling Degree Days 0 0  
Month to date cooling degree days 0 0  
Year to date cooling degree days 0 0  
Moisture  
Dew Point 16 °F    
Average Humidity 68    
Maximum Humidity 92    
Minimum Humidity 44    
Precipitation  
Precipitation 0.00 in 0.02 in 0.00 in (2014)
Month to date precipitation 0.72 0.38  
Year to date precipitation 1.13 0.77  
Sea Level Pressure  
Sea Level Pressure 30.26 in    
Wind  
Wind Speed 9 mph (West)    
Max Wind Speed 15 mph    
Max Gust Speed 17 mph    
Visibility 10 miles    
Events      
T = Trace of Precipitation, MM = Missing Value Source: NWS Daily Summary

Daily Weather History Graph

Daily Weather History Graph

Search for Another Location

Airport:

Trip Planner

Search our weather history database for the weather conditions in past years. The results will help you decide how hot, cold, wet, or windy it might be!

Date:

Astronomy

Feb. 27, 2013 Rise Set
Actual Time 6:42 AM MST 5:48 PM MST
Civil Twilight 6:13 AM MST 6:17 PM MST
Nautical Twilight 5:39 AM MST 6:50 PM MST
Astronomical Twilight 5:05 AM MST 7:24 PM MST
Moon 8:20 PM MST (2/27) 7:12 AM MST (2/27)
Length of Visible Light 12h 04m
Length of Day
11h 05m
Waning Gibbous, 96% of the Moon is Illuminated
Feb 27
Waning Gibbous
Mar 4
Last Quarter
Mar 11
New
Mar 19
First Quarter
Mar 27
Full

Hourly Weather History & Observations

Time (MST) Temp. Windchill Dew Point Humidity Pressure Visibility Wind Dir Wind Speed Gust Speed Precip Events Conditions
12:53 AM 17.1 °F 5.8 °F 15.1 °F 92% 30.26 in 10.0 mi West 9.2 mph - N/A   Clear
1:53 AM 19.0 °F 6.1 °F 16.0 °F 88% 30.26 in 10.0 mi West 12.7 mph - N/A   Clear
2:53 AM 18.0 °F 4.2 °F 16.0 °F 92% 30.26 in 10.0 mi West 13.8 mph - N/A   Clear
3:53 AM 17.1 °F 3.0 °F 15.1 °F 92% 30.27 in 10.0 mi West 13.8 mph - N/A   Clear
4:53 AM 17.6 °F 4.3 °F 15.8 °F 93% 30.16 in 10.0 mi West 12.7 mph - N/A   Clear
5:53 AM 18.0 °F 6.1 °F 15.1 °F 88% 30.30 in 10.0 mi West 10.4 mph - N/A   Clear
6:53 AM 17.1 °F - 12.9 °F 84% 30.31 in 10.0 mi Calm Calm - N/A   Clear
7:53 AM 21.2 °F 9.5 °F 17.6 °F 86% 30.18 in 10.0 mi West 11.5 mph - N/A   Clear
8:53 AM 25.0 °F 14.2 °F 19.0 °F 78% 30.30 in 10.0 mi West 11.5 mph - N/A   Clear
9:53 AM 27.0 °F 16.1 °F 18.0 °F 69% 30.32 in 10.0 mi West 12.7 mph - N/A   Clear
10:53 AM 30.0 °F 21.1 °F 19.0 °F 64% 30.31 in 10.0 mi West 10.4 mph - N/A   Clear
11:53 AM 32.0 °F 23.6 °F 18.0 °F 56% 30.31 in 10.0 mi WNW 10.4 mph - N/A   Clear
12:53 PM 33.1 °F 24.4 °F 17.1 °F 52% 30.30 in 10.0 mi WNW 11.5 mph - N/A   Clear
1:53 PM 34.0 °F 28.0 °F 18.0 °F 52% 30.27 in 10.0 mi WNW 6.9 mph - N/A   Clear
2:53 PM 36.0 °F 30.3 °F 17.1 °F 46% 30.27 in 10.0 mi NW 6.9 mph - N/A   Clear
3:53 PM 36.0 °F - 16.0 °F 44% 30.27 in 10.0 mi Calm Calm - N/A   Clear
4:53 PM 33.1 °F - 15.1 °F 48% 30.27 in 10.0 mi Calm Calm - N/A   Clear
5:53 PM 21.9 °F 13.4 °F 16.0 °F 78% 30.30 in 10.0 mi WSW 6.9 mph - N/A   Clear
6:53 PM 24.1 °F 18.2 °F 15.1 °F 69% 30.30 in 10.0 mi SSE 4.6 mph - N/A   Mostly Cloudy
7:53 PM 19.9 °F 13.4 °F 14.0 °F 78% 30.29 in 10.0 mi SSW 4.6 mph - N/A   Scattered Clouds
8:53 PM 26.6 °F 18.2 °F 17.6 °F 69% 30.15 in 10.0 mi SW 8.1 mph - N/A   Overcast
9:53 PM 25.0 °F 17.1 °F 17.1 °F 72% 30.27 in 10.0 mi WSW 6.9 mph - N/A   Overcast
10:53 PM 24.8 °F 14.0 °F 17.6 °F 74% 30.15 in 10.0 mi WSW 11.5 mph - N/A   Scattered Clouds
11:53 PM 24.8 °F 12.9 °F 15.8 °F 69% 30.14 in 10.0 mi SW 13.8 mph - N/A   Clear